User: anonymous   Login
Location: Unspecified
(0.0000°N, 0.0000°E)
Time: 07:50:10
(UTC+00:00)
Language:

NOSS 2-2 (C) - Orbit

View from above orbital plane
View from above orbital plane
View from above satellite
View from above satellite

Ground track
Ground track

The orbit data is extracted from the following two-line orbital elements,

1 21799U 91076C   24111.94481896 0.00011000  00000-0  11078-2 0    03
2 21799  63.3059  86.6773 0904530  60.1557 299.8443 13.47882192    02
Epoch (UTC): 20 April 2024 22:40:32
Eccentricity: 0.0904530
inclination: 63.3059°
perigee height: 405 km
apogee height: 1754 km
right ascension of ascending node: 86.6773°
argument of perigee: 60.1557°
revolutions per day: 13.47882192
mean anomaly at epoch: 299.8443°
orbit number at epoch: 0

The dashed part of the orbit path shows where the satellite is in the earth's shadow,  

DLR